www.pogodaiklimat.ru

Погода и климат >> Архив погоды >> Россия >> Ханты-Мансийский АО >> Нефтеюганск


ПОГОДА в Нефтеюганске

АРХИВ ПОГОДЫ в Нефтеюганске

Время (UTC), дата Ветер
(напр.,м/с)
 
Видим.   Явления Облачность Т
(С)
Тd
(С)
f
(%)
Тe
(С)
Тes
(С)
Комфортность P
(гПа)
Po
(гПа)
Тmin
(С)
Tmax
(С)
R
(мм)
S
(см)
03 16.03 Ю 6
{9}
50 км 10/0
[Ac As]
-9.2 -15.8 59 -17 -17 по сезону 1024.9 1019.6 -12.7 75
06 16.03 Ю 5
{10}
50 км 10/0
[As op]
-6.4 -13.7 56 -13 -13 по сезону 1023.9 1018.7
09 16.03 ЮЗ 5
{11}
50 км 10/0
[As op]
-2.4 -11.6 49 -8 -8 по сезону 1022.8 1017.7
12 16.03 ЮЗ 4
{10}
50 км 10 баллов -0.9 -9.8 51 -6 -6 тепло 1023.8 1018.7
15 16.03 Ю 3
{11}
20 км 2 балла -2.7 -10.5 55 -7 -7 тепло 1023.9 1018.7 -0.6
18 16.03 Ю 4 20 км ясно -4.8 -11.8 58 -11 -11 по сезону 1023.4 1018.2
21 16.03 ЮЗ 4 20 км ясно -5.3 -12.3 58 -11 -11 тепло 1023.4 1018.2
00 17.03 ЮЗ 5 20 км 6/0
[Ac trans]
-5.1 -10.8 64 -12 -12 тепло 1023.3 1018.1
03 17.03 ЮЗ 3
{9}
50 км 5/0
[Ac trans Ci fib]
-5.5 -10.5 68 -11 -10 по сезону 1024.1 1018.9 -6.2 75
06 17.03 ЮЗ 3 50 км 3/0
[Ci fib]
-2.8 -9.0 62 -8 -4 тепло 1024.3 1019.1
09 17.03 ЮЗ 3 50 км 3/0
[Ci fib]
+0.9 -7.4 54 -3 0 тепло 1024.1 1019.0
12 17.03 Ю 3 50 км 2 балла +0.9 -6.9 56 -3 -3 тепло 1025.1 1020.0
15 17.03 Ю 3
{9}
20 км ясно -2.1 -8.2 63 -7 -7 тепло 1026.5 1021.3 +1.5
18 17.03 ЮЗ 2 20 км ясно -3.4 -8.7 67 -7 -7 тепло 1025.3 1020.1
21 17.03 Ю 2 20 км ясно -6.1 -9.7 76 -10 -10 тепло 1025.5 1020.2
00 18.03 Ю 3 20 км ясно -7.1 -10.2 78 -13 -13 по сезону 1026.0 1020.7
03 18.03 Ю 2
{7}
50 км ясно -7.0 -10.6 75 -11 -10 по сезону 1026.7 1021.4 -8.7 74
06 18.03 Ю 3 50 км 6/0
[Ci fib]
-2.2 -8.9 60 -7 -3 тепло 1027.2 1022.0
09 18.03 Ю 3 50 км 9 баллов +4.2 -7.6 42 +1 +2 тепло 1027.7 1022.7
12 18.03 ЮЗ 3 50 км 10 баллов +3.7 -7.7 43 +1 +1 тепло 1027.8 1022.7
15 18.03 Ю 3
{7}
20 км 10 баллов +1.6 -7.2 52 -2 -2 тепло 1029.1 1024.0 +5.3
18 18.03 Ю 3 20 км 10/0
[Cs]
-0.2 -7.4 58 -4 -4 тепло 1027.3 1022.2
21 18.03 Ю 2 20 км 10/0
[Ci fib]
-1.6 -9.4 55 -5 -5 тепло 1027.3 1022.2
00 19.03 Ю 3 20 км 8/0
[Ci fib]
-3.2 -12.4 49 -8 -8 тепло 1027.4 1022.2
03 19.03 ЮЗ 3
{7}
50 км 10/0
[Cs]
-4.4 -14.3 46 -9 -8 тепло 1027.9 1022.6 -4.4 73
06 19.03 Ю 2 50 км 3/0
[Ci fib]
-1.8 -13.2 41 -5 -0 тепло 1028.3 1023.1 -4.5
09 19.03 ЮЗ 3 50 км 8/0
[Ci fib]
+1.4 -11.1 39 -2 +1 тепло 1028.0 1022.9
12 19.03 Ю 4 50 км 9 баллов +1.9 -11.6 36 -2 -2 тепло 1029.1 1024.0
15 19.03 Ю 3
{8}
20 км 6 баллов -1.2 -11.9 44 -5 -5 тепло 1030.5 1025.3 +2.3
18 19.03 ЮЗ 4 20 км 4/0
[Ci fib]
-2.4 -13.0 44 -8 -8 тепло 1029.2 1024.0
21 19.03 ЮЗ 3 20 км ясно -4.8 -14.4 47 -10 -10 тепло 1029.8 1024.6
00 20.03 ЮЗ 2 20 км ясно -8.6 -15.9 56 -13 -13 тепло 1030.4 1025.1
03 20.03 ЮЗ 2
{9}
50 км 3/0
[Ci fib]
-7.0 -16.2 48 -11 -10 по сезону 1031.7 1026.4 -10.0 73
06 20.03 Ю 2 50 км 3/0
[Ci fib]
-2.4 -14.7 38 -5 -1 тепло 1031.6 1026.4
09 20.03 ЮЗ 4 50 км 3/0
[Ci fib]
+1.8 -15.2 27 -2 +1 тепло 1031.6 1026.5
12 20.03 Ю 3 50 км 4 балла +2.8 -14.8 26 -0 0 тепло 1033.1 1028.0
15 20.03 ЮЗ 4
{8}
20 км ясно +0.9 -17.4 24 -3 -3 тепло 1033.1 1028.0 +3.2
18 20.03 ЮЗ 3 20 км ясно -1.6 -16.9 30 -5 -5 тепло 1032.2 1027.0
21 20.03 ЮЗ 3 20 км ясно -3.4 -17.9 32 -8 -8 тепло 1032.6 1027.4
00 21.03 ЮЗ 3 20 км ясно -4.6 -18.2 34 -9 -9 тепло 1033.0 1027.7
03 21.03 ЮЗ 4
{8}
50 км 8/0
[Ci fib]
-5.5 -18.1 36 -11 -11 по сезону 1033.7 1028.5 -6.8 72
06 21.03 Ю 2 50 км 6/0
[Ci fib]
-1.2 -15.5 33 -4 +1 тепло 1033.5 1028.3
09 21.03 ЮЗ 3 50 км 8/0
[Ci fib]
+2.4 -15.7 25 -1 +3 тепло 1033.2 1028.1
12 21.03 ЮЗ 3 50 км 5 баллов +3.2 -14.0 27 0 +1 тепло 1034.4 1029.3
15 21.03 Ю 2
{9}
20 км 6 баллов -0.6 -13.5 37 -3 -3 тепло 1034.5 1029.3 +3.6
18 21.03 ЮЗ 3 20 км 4/0
[Ci fib]
-2.1 -15.1 36 -6 -6 тепло 1032.9 1027.7
21 21.03 Ю 3 20 км ясно -6.5 -16.0 47 -12 -12 по сезону 1032.7 1027.4
00 22.03 Ю 2 20 км 3/0
[Ci fib]
-7.3 -16.2 49 -11 -11 по сезону 1032.6 1027.3
03 22.03 Ю 3
{6}
50 км 10/0
[Ac As]
-5.2 -15.2 45 -10 -10 по сезону 1032.8 1027.6 -7.6 72
06 22.03 Ю 3 50 км 10/0
[Cs]
-1.5 -13.2 40 -6 -2 по сезону 1031.9 1026.7
09 22.03 ЮЗ 5 50 км 10/0
[Cs]
+2.7 -15.1 26 -2 0 тепло 1031.6 1026.5
12 22.03 Ю 5 50 км 10 баллов +3.2 -14.4 26 -1 -1 тепло 1031.8 1026.7
15 22.03 Ю 4
{9}
20 км 10 баллов +0.7 -12.7 36 -4 -4 тепло 1030.4 1025.3 +3.5
18 22.03 ЮЗ 4 20 км 10/0
[As trans]
+0.4 -13.9 33 -4 -4 тепло 1029.6 1024.5
21 22.03 ЮЗ 4 20 км 10/0
[Ac As]
-0.9 -13.9 37 -6 -6 тепло 1029.2 1024.0

 

Местоположение метеостанции Нефтеюганск (Ханты-Мансийский АО, Россия): широта 61.07 долгота 72.62 высота над уровнем моря 40 м.

В архиве по умолчанию представлена погода в Нефтеюганске за последнюю неделю. Архивные данные за месяц целиком и за предыдущие месяцы, начиная с января 2011 года, Вы можете получить, выбрав интересующий диапазон дат из раскрывающегося списка и нажав кнопку "Ввод!".

Внимание! Время в таблицах - всемирное. Для получения местного времени необходимо прибавить поправку, которая в Нефтеюганске равна 5 ч.

Смотрите также архив погоды в соседних городах и на ближайших метеорологических станциях:

Погода в Сургуте (Ханты-Мансийский АО, Россия) (52 км)
Погода в Сытомино (Ханты-Мансийский АО, Россия) (75 км)
Погода в Угуте (Ханты-Мансийский АО, Россия) (99 км)
Погода в Салыме (Ханты-Мансийский АО, Россия) (127 км)
Погода в Когалыме (Ханты-Мансийский АО, Россия) (164 км)
Погода в Таурово (Ханты-Мансийский АО, Россия) (170 км)
Погода в Ханты-Мансийске (Ханты-Мансийский АО, Россия) (188 км)
Погода в Нижнесортымском (Ханты-Мансийский АО, Россия) (193 км)
Погода в Алтае (Ханты-Мансийский АО, Россия) (215 км)
Погода в Нижневартовске (Ханты-Мансийский АО, Россия) (215 км)

Пояснения к столбцам:

Ветер - указаны скорость ветра в м/с - средняя за 10 мин, порывы в срок и между сроками (в фигурных скобках) и направление, откуда дует ветер: С - северный, СВ - северо-восточный, В - восточный, ЮВ - юго-восточный, Ю - южный, ЮЗ - юго-западный, З - западный, СЗ - северо-западный.
Видимость - горизонтальная дальность видимости в метрах или километрах. При видимости от 1 до 10 км при отсутствии осадков обычно наблюдается дымка, при ухудшении видимости до 1 км и менее - туман. В сухую погоду видимость может ухудшаться дымом, пылью или мглою.
Явления - указаны атмосферные явления, наблюдавшиеся в срок или в последний час перед сроком; фигурными скобками обозначены явления, наблюдавшиеся между сроками (за 1-3 часа до срока); квадратными скобками обозначены град или гололедные отложения с указанием их диаметра в мм.
Облачность - указаны через наклонную черту общая и нижняя облачность в баллах и высота нижней границы облаков в метрах; квадратными скобками обозначены формы облаков: Ci - перистые, Cs - перисто-слоистые, Cc - перисто-кучевые, Ac - высококучевые, As - высокослоистые, Sc - слоисто-кучевые, Ns - слоисто-дождевые, Cu - кучевые, Cb - кучево-дождевые. Подробнее классификацию облаков см. в Атласе облаков (PDF).
T - Температура воздуха - температура, измеренная на высоте 2 м над землей.
Td - Температура точки росы - температура, при понижении до которой содержащийся в воздухе водяной пар достигнет насыщения.
f - Относительная влажность воздуха - влажноcть воздуха, измеренная на высоте 2 м над землей.
Te - Эффективная температура - температура, которую ощущает одетый по сезону человек в тени. Характеристика душности погоды. При расчете учитывается влияние влажности воздуха и скорости ветра на теплоощущения человека.
Tes - Эффективная температура на солнце - температура, которую ощущает человек, с поправкой на солнечный нагрев. Характеристика знойности погоды. Зависит от высоты солнца над горизонтом, облачности и скорости ветра. Ночью, в пасмурную погоду, а также при ветре 12 м/с и более поправка равна нулю.
P - Атмосферное давление - приведенное к уровню моря атмосферное давление.
Po - Атмосферное давление - измеренное на уровне метеостанции атмосферное давление.
Tmin - Минимальная температура - минимум температуры воздуха на высоте 2 м над землей.
Tmax - Максимальная температура - максимум температуры воздуха на высоте 2 м над землей.
R - Количество осадков - Количество выпавших осадков, мм. При наведении курсора мыши на число - период времени, за который выпало указанное количество осадков.
S - Снежный покров - Высота снежного покрова, см. При наведении курсора мыши на число - состояние снежного покрова и степень покрытия местности в баллах.